This is the latest recevied weather packets stored in our database for station/object XQ6AK-15. If no packets are shown the sender has not sent any weather packets the latest 10 day(s).
| Time | Temp. | Humidity | Pressure | Rain* | Wind** | Luminosity | Snow |
|---|---|---|---|---|---|---|---|
| 1788005869 | 7.22° C | 99% | 1007.4 hPa | 0 mm | - | 11 W/m² | - |
| 1788005564 | 7.22° C | 99% | 1007.4 hPa | 0 mm | - | 12 W/m² | - |
| 1788005263 | 7.22° C | 99% | 1007.4 hPa | 0 mm | - | 12 W/m² | - |
| 1788004961 | 7.22° C | 99% | 1007.2 hPa | 0 mm | - | 14 W/m² | - |
| 1788004655 | 7.22° C | 99% | 1007.1 hPa | 0 mm | - | 9 W/m² | - |
| 1788004350 | 7.22° C | 99% | 1007.2 hPa | 0 mm | - | 8 W/m² | - |
| 1788004045 | 7.22° C | 99% | 1007.1 hPa | 0 mm | - | 5 W/m² | - |
| 1788003743 | 6.67° C | 99% | 1007.1 hPa | 0 mm | - | 8 W/m² | - |
| 1788003439 | 6.67° C | 99% | 1006.9 hPa | 0 mm | - | 6 W/m² | - |
| 1788003138 | 6.67° C | 99% | 1006.9 hPa | 0 mm | - | 3 W/m² | - |
| 1788002832 | 6.67° C | 99% | 1007.1 hPa | 0 mm | - | 1 W/m² | - |
| 1788002528 | 7.22° C | 99% | 1007 hPa | 0 mm | - | 1 W/m² | - |
| 1788002223 | 6.67° C | 99% | 1006.9 hPa | 0 mm | - | 0 W/m² | - |
| 1788001917 | 7.22° C | 99% | 1006.9 hPa | 0 mm | - | 0 W/m² | - |
| 1788001612 | 7.22° C | 99% | 1006.9 hPa | 0 mm | - | 0 W/m² | - |
| 1788001307 | 7.22° C | 99% | 1006.9 hPa | 1.27 mm | - | 0 W/m² | - |
| 1788001007 | 7.22° C | 99% | 1007.1 hPa | 1.27 mm | - | 0 W/m² | - |
| 1788000702 | 7.22° C | 99% | 1007 hPa | 0 mm | - | 0 W/m² | - |
| 1788000397 | 7.22° C | 99% | 1007.2 hPa | 0 mm | - | 0 W/m² | - |
| 1788000091 | 7.22° C | 99% | 1007.1 hPa | 0 mm | - | 0 W/m² | - |
| 1787999788 | 7.22° C | 99% | 1007.1 hPa | 0 mm | - | 0 W/m² | - |
| 1787999485 | 7.22° C | 99% | 1006.9 hPa | 0 mm | - | 0 W/m² | - |
| 1787999180 | 7.22° C | 99% | 1007 hPa | 0 mm | - | 0 W/m² | - |
| 1787998874 | 7.22° C | 99% | 1007.1 hPa | 1.78 mm | - | 0 W/m² | - |
| 1787998573 | 7.22° C | 99% | 1007.1 hPa | 1.78 mm | - | 0 W/m² | - |
* Rain latest hour (hover to see other rain measurements)
** Current wind speed in m/s (hover to see current wind gust speed)